GEFSNGP_500_meanwind_096.txt.gz
Wind_Speed
4 5 6 7 7 9 10 12 15 16 18 20 21 22 22 22 23 22 21 20 21 22 23 24 25 25 26 27 27 28 29 30 31 32 34 34 34 34 34 35 35 36 36 36
5 6 6 7 8 8 10 12 14 17 18 20 21 23 23 23 22 21 20 20 19 20 21 22 23 24 25 25 25 26 26 27 29 30 30 30 31 32 32 33 33 33 33 34
6 6 7 7 8 10 12 13 15 17 18 19 20 21 21 22 21 21 20 19 19 18 19 21 22 23 23 24 25 25 26 27 27 27 27 28 29 30 30 30 30 30 31 31
6 7 8 9 10 12 13 14 15 16 18 20 20 21 20 20 20 19 18 18 19 19 19 20 20 21 22 23 23 24 24 24 25 25 26 27 27 27 27 27 28 28 29 29
8 9 9 11 12 14 15 15 17 18 19 20 20 20 20 19 18 17 17 17 18 18 18 19 19 21 21 22 22 22 22 23 23 24 24 24 24 24 24 24 25 26 26 25
9 10 11 12 14 16 17 17 18 19 19 19 19 19 18 17 16 15 15 16 16 16 17 17 17 18 19 20 20 21 21 22 22 22 21 21 21 22 22 23 23 23 23 23
10 11 13 14 16 18 19 19 19 19 18 18 18 17 16 16 15 15 15 15 14 15 15 15 15 16 16 16 17 18 18 18 19 19 19 20 20 20 20 21 21 21 21 21
11 12 14 16 17 18 19 19 19 19 19 18 17 16 15 15 14 14 13 13 13 13 13 14 14 14 14 15 15 15 15 16 17 17 18 18 18 18 19 19 19 19 19 19
11 13 14 16 17 18 18 19 19 19 19 18 17 16 15 14 14 13 12 12 12 12 12 12 12 13 13 13 13 13 13 14 14 15 15 15 16 16 16 16 16 16 16 17
11 13 14 16 17 18 18 19 20 19 18 17 16 15 14 14 12 11 10 10 10 10 9 10 10 10 11 11 12 12 12 12 13 13 13 13 13 13 13 13 13 13 14 14
11 13 14 16 17 18 18 19 20 20 19 17 16 14 14 13 12 11 10 10 9 8 8 8 8 8 9 10 10 10 10 11 11 12 12 12 12 12 11 11 11 11 12 12
11 13 15 17 18 18 19 20 20 19 19 17 16 15 13 13 11 10 10 9 8 7 7 7 7 7 7 8 8 8 9 9 10 10 10 10 10 10 10 10 10 10 10 10
12 14 16 17 18 19 19 20 20 19 19 18 16 15 14 13 11 11 10 10 9 8 7 6 6 5 6 6 6 7 7 8 9 9 9 9 8 8 9 8 8 9 9 9
12 14 15 17 18 19 19 20 19 19 18 17 16 15 14 13 12 12 11 11 10 9 8 7 6 6 6 5 6 6 7 7 8 7 7 7 7 7 7 7 7 7 8 8
11 13 15 16 17 18 19 19 19 19 18 17 16 15 14 13 13 12 11 11 11 10 8 7 6 6 5 5 5 6 6 6 7 7 7 6 6 6 6 7 7 7 7 7
10 12 14 15 17 18 19 19 18 19 18 17 16 15 15 14 13 13 12 12 12 11 9 8 7 6 6 6 6 6 6 6 6 6 6 6 6 6 6 7 7 7 7 7
9 11 13 14 16 17 18 18 18 18 19 18 17 16 15 15 14 14 13 13 13 12 11 10 8 7 7 6 6 6 6 6 6 6 6 6 6 7 7 7 7 7 7 7
8 10 12 13 14 16 17 18 18 18 19 19 18 17 16 16 15 15 15 14 14 13 13 12 11 10 9 8 7 7 7 7 7 7 7 7 7 7 7 7 7 7 8 8
7 9 10 12 13 15 16 17 18 18 19 19 19 18 17 17 17 16 16 16 15 14 14 13 13 12 11 10 9 8 8 8 8 7 8 8 8 8 8 8 8 8 8 9
6 8 9 11 12 14 15 16 17 18 18 18 18 18 18 18 17 17 17 16 16 16 15 15 14 13 13 12 11 10 9 8 8 8 8 9 9 9 9 9 9 9 9 9
6 7 8 9 11 12 13 15 16 17 18 18 18 18 18 18 17 17 17 17 17 17 17 16 15 14 14 13 13 12 11 10 10 9 10 10 10 10 10 10 9 9 9 9
5 6 7 8 10 11 12 13 14 16 17 17 18 18 18 17 17 17 17 18 18 17 18 17 17 16 15 15 14 14 13 12 11 11 11 11 11 11 11 10 10 10 10 10
4 5 6 7 8 9 11 12 13 14 15 16 16 17 17 17 17 17 17 17 17 17 18 18 17 17 16 15 15 14 13 12 12 12 12 12 11 11 11 11 11 10 10 10
3 4 5 6 7 8 9 10 11 13 14 14 15 16 16 16 16 17 17 16 16 17 17 17 17 17 16 16 15 15 14 13 12 12 12 12 12 11 11 11 11 11 10 10
4 4 4 5 6 7 7 9 10 11 12 13 13 14 15 15 15 15 15 16 16 16 17 17 16 16 16 16 15 15 14 13 13 13 12 12 12 11 11 11 10 10 10 10
5 4 4 5 5 6 6 7 8 9 10 11 11 12 13 14 14 14 14 15 15 15 16 16 16 15 15 15 15 15 15 14 14 13 13 12 12 11 11 10 10 10 10 9
7 6 5 5 5 5 5 6 7 8 8 9 10 10 11 12 12 13 13 13 14 14 14 15 15 15 15 15 15 15 15 14 14 14 13 13 12 12 11 11 10 10 9 9

GEFSNGP_500_meanwind_102.txt.gz
Wind_Speed
6 7 8 8 9 10 11 12 13 14 15 16 16 17 18 18 19 19 19 20 20 19 19 19 19 19 20 21 21 21 22 23 24 25 26 27 27 28 29 29 30 30 31 31
5 7 8 8 9 11 11 12 14 15 16 16 17 18 18 18 18 18 19 19 18 18 17 17 18 18 19 19 19 20 21 22 23 23 24 25 26 26 27 27 27 28 28 28
6 7 8 9 10 10 11 12 13 15 16 17 18 17 17 18 17 17 17 17 17 17 17 18 17 17 17 18 20 20 20 21 22 22 22 23 23 24 24 25 25 26 26 27
6 7 8 9 10 10 11 12 14 15 16 17 18 18 18 17 17 17 17 16 16 17 17 17 17 17 17 17 17 18 18 19 19 20 20 21 22 23 23 23 24 24 24 24
6 7 8 9 11 12 12 13 14 15 17 17 18 18 18 17 17 16 17 16 15 16 17 17 16 16 16 16 16 17 17 17 17 18 18 19 20 21 21 21 21 21 22 22
6 8 9 10 12 13 14 14 15 16 17 18 18 17 17 16 16 15 15 14 14 14 15 15 15 16 16 15 15 15 16 16 17 17 17 18 18 19 19 19 19 19 20 19
7 9 10 12 13 15 15 15 16 17 18 18 18 17 16 15 15 14 14 13 13 13 13 13 13 14 14 14 14 14 15 15 15 15 16 17 17 18 17 17 17 18 18 18
8 9 11 12 14 16 16 17 17 18 18 18 18 17 15 14 13 13 13 12 12 12 11 12 12 12 12 12 12 12 13 13 14 14 15 15 15 15 16 16 16 16 16 16
8 9 11 13 15 16 17 18 18 18 18 18 18 17 15 13 12 12 11 11 11 11 11 11 10 10 10 10 10 11 11 11 12 13 13 14 14 14 14 14 14 13 13 13
7 9 11 13 15 16 17 18 18 18 18 18 18 17 15 13 11 11 10 10 10 10 10 9 8 8 9 9 9 9 10 10 11 11 12 12 12 12 12 12 12 12 12 12
7 9 11 13 15 16 17 18 18 18 18 18 18 17 15 13 11 9 9 8 8 7 6 6 6 7 7 7 8 8 9 9 10 10 10 11 11 11 11 11 11 10 10 10
7 9 11 13 15 16 17 18 18 17 18 18 17 16 15 13 11 10 9 8 7 6 5 5 5 5 6 6 6 7 7 8 8 9 9 10 10 10 10 10 9 9 8 8
6 8 10 13 15 16 17 18 18 18 18 18 17 16 15 13 12 11 10 9 8 7 6 5 5 5 5 5 5 6 6 7 8 8 9 9 9 9 9 9 8 8 8 8
5 8 10 13 14 16 17 18 17 18 18 18 17 16 15 14 13 11 10 10 9 8 7 5 5 5 5 5 5 6 6 7 7 8 8 8 8 8 8 8 7 7 7 8
5 7 9 12 14 15 16 17 18 18 18 18 17 16 15 14 13 12 11 11 10 9 8 7 6 5 5 5 6 6 7 7 7 8 8 8 8 8 7 7 7 7 7 8
4 7 9 11 12 14 16 17 18 18 18 18 18 17 16 15 14 13 12 11 11 11 10 9 8 7 6 6 6 6 7 7 7 8 8 8 8 8 8 8 8 8 8 8
4 5 7 9 11 13 15 16 17 17 18 18 18 18 17 16 15 14 13 13 12 12 11 10 9 8 8 7 7 7 8 8 8 8 9 9 9 9 9 9 9 9 9 9
3 4 6 8 10 12 14 15 16 17 17 18 18 18 18 17 16 16 14 14 13 13 12 11 11 10 9 9 8 8 9 9 9 10 10 10 10 10 10 10 9 9 9 10
2 4 6 7 9 11 12 14 15 16 17 17 18 18 18 18 17 17 16 15 15 15 14 13 13 12 11 10 10 10 9 10 10 10 10 11 11 11 11 11 11 10 11 11
1 3 5 6 8 10 11 13 14 15 16 16 17 18 18 19 18 18 17 17 17 17 16 15 15 14 13 13 12 12 11 11 11 11 11 12 12 12 11 11 11 11 11 12
0 2 4 5 7 8 10 11 13 14 15 16 17 17 18 19 19 18 18 18 18 18 17 16 16 16 15 15 14 14 14 13 13 13 12 12 12 12 12 12 12 12 12 13
1 1 2 4 5 7 8 10 11 13 14 15 15 16 17 18 18 18 18 18 18 18 18 18 17 17 17 16 16 15 15 14 14 13 13 13 13 12 12 12 12 13 13 13
3 1 1 2 4 5 7 8 9 11 12 13 14 15 16 17 17 17 17 18 18 18 18 18 18 18 17 17 16 15 15 14 14 14 13 13 13 13 13 12 12 13 13 13
4 2 1 1 2 3 5 6 8 9 10 12 13 14 15 15 15 16 16 16 17 17 18 18 18 18 18 17 16 16 15 15 14 14 14 13 13 13 13 12 12 12 13 13
6 4 2 1 1 2 3 4 6 7 8 10 11 12 13 13 14 14 15 15 16 16 17 17 17 17 17 17 16 15 15 15 15 14 14 13 13 13 12 12 12 12 12 12
7 5 4 2 1 1 2 3 4 5 6 7 9 10 11 11 12 13 13 14 14 15 15 16 16 16 16 16 16 15 15 15 14 14 14 13 13 13 12 12 12 12 12 11
9 7 6 4 3 2 2 2 3 4 5 6 7 7 8 9 10 11 11 12 13 13 14 14 14 14 14 14 14 14 14 14 14 14 14 13 13 13 12 12 12 12 11 11

GEFSNGP_500_meanwind_108.txt.gz
Wind_Speed
6 7 7 8 9 10 11 12 12 13 14 15 16 17 18 18 19 18 19 20 21 22 22 21 21 22 22 21 22 22 22 22 22 23 23 24 24 25 25 25 25 26 26 27
6 7 8 9 10 11 11 12 13 14 15 16 17 18 18 19 19 19 20 21 21 21 21 21 20 21 21 19 19 20 20 20 20 21 21 21 21 21 22 23 24 24 25 26
6 7 8 9 10 11 12 12 13 14 16 16 17 18 18 19 19 19 19 20 20 21 21 19 19 19 19 19 18 17 17 18 18 19 19 19 19 20 21 22 22 23 23 24
5 7 8 10 10 11 12 13 14 15 16 17 17 17 17 18 18 18 18 18 18 18 18 17 18 19 18 17 17 16 16 16 15 15 16 17 18 18 18 18 19 20 21 22
5 7 8 9 10 11 12 13 14 15 16 17 17 17 17 17 17 17 17 17 16 16 16 16 16 16 16 16 15 14 14 14 14 15 15 15 15 15 16 17 18 18 19 19
5 6 8 9 10 11 13 13 14 15 16 16 16 17 17 16 16 15 15 14 13 13 13 13 14 14 14 13 12 12 13 13 13 13 14 14 14 14 15 16 16 17 17 17
5 7 8 9 11 12 13 14 15 15 16 16 16 16 16 15 14 13 12 12 11 11 10 10 11 11 12 12 11 12 12 12 13 13 13 13 13 14 14 15 15 15 16 16
5 6 8 9 10 12 13 14 15 15 16 16 16 15 15 14 12 12 11 10 10 9 9 9 10 9 9 9 10 10 10 11 11 11 12 12 12 12 13 13 14 14 14 15
5 6 7 9 11 12 14 14 15 15 15 16 16 15 14 12 11 10 9 9 8 8 8 8 8 8 8 7 8 8 8 9 9 10 10 10 11 11 12 12 12 12 13 13
5 6 7 9 11 12 14 14 15 15 16 16 15 15 13 11 10 8 7 7 7 7 7 7 8 8 7 7 7 7 6 7 7 8 8 9 10 10 10 10 10 10 11 11
5 6 7 9 10 12 14 14 15 15 15 15 15 14 13 11 9 8 7 6 6 5 5 6 6 6 6 6 5 5 6 6 7 7 7 8 8 8 8 8 8 8 9 9
4 5 7 8 10 12 13 14 15 15 15 15 14 14 12 11 9 7 6 6 5 4 4 4 4 4 4 3 3 4 5 5 6 6 6 6 6 6 6 6 7 7 7 7
4 5 6 8 10 11 13 14 14 14 14 14 14 14 13 11 10 8 7 6 5 4 4 3 3 2 2 2 2 2 3 3 4 4 4 4 5 5 5 5 6 6 5 5
3 4 5 8 9 11 12 13 14 14 14 14 14 14 13 12 11 9 8 7 6 5 5 4 3 3 2 2 2 2 2 3 4 4 4 4 4 5 5 5 5 4 5 5
2 3 5 7 9 10 11 13 14 14 14 14 14 14 14 13 12 11 9 8 7 6 5 5 4 4 3 3 3 3 3 4 4 4 4 4 4 5 5 4 4 4 4 5
2 2 4 6 8 9 11 12 13 14 14 15 15 15 14 14 13 12 11 10 9 8 7 7 7 6 6 5 5 5 5 5 5 6 6 6 6 6 5 5 5 6 6 6
3 2 3 5 7 8 10 11 13 14 14 14 15 15 15 15 14 14 13 12 11 10 10 9 9 8 8 8 8 8 8 8 7 8 8 8 8 8 8 7 7 7 7 7
3 2 2 4 5 7 9 11 12 13 14 14 15 16 16 16 16 15 15 15 14 13 12 11 11 10 10 10 9 9 9 9 10 10 10 10 10 10 10 10 9 9 9 9
4 2 1 2 4 6 8 10 11 13 14 14 15 16 17 17 17 17 16 16 15 14 14 13 13 13 12 12 11 11 11 11 11 11 11 11 11 11 11 11 11 11 10 10
5 3 1 2 3 5 7 9 10 12 13 14 15 16 17 17 18 18 18 17 17 16 16 15 15 14 14 14 13 13 13 13 12 12 12 12 12 11 11 11 11 11 11 11
6 4 2 1 2 4 6 7 9 11 12 13 14 15 16 17 18 18 19 19 18 18 17 17 16 16 15 15 14 14 14 13 13 13 12 12 12 12 12 12 12 12 12 12
7 5 4 2 2 3 4 6 8 9 11 12 13 14 15 16 17 18 18 18 18 18 18 17 17 17 16 15 15 15 14 14 13 13 13 12 12 12 12 12 12 12 12 11
9 6 5 3 2 2 3 4 6 8 9 11 12 13 14 15 16 16 16 17 17 18 17 17 17 17 16 15 15 15 14 14 13 13 12 12 12 12 11 11 11 11 11 11
10 8 6 4 3 2 2 3 4 6 7 9 10 11 12 13 14 15 15 15 16 16 16 16 16 16 16 15 15 15 14 14 13 13 12 12 11 11 11 11 11 11 11 10
12 9 7 6 4 3 2 2 3 4 5 6 8 9 10 11 12 13 14 14 14 15 15 15 15 15 15 15 15 14 14 13 13 12 12 11 11 11 11 10 10 10 10 10
13 11 9 8 6 4 3 2 1 2 3 4 5 7 8 9 10 11 11 12 13 13 13 13 13 14 14 14 14 14 13 13 13 12 12 11 11 11 10 10 10 10 9 9
14 12 11 9 7 6 4 3 2 1 1 2 3 4 5 6 7 8 9 10 10 11 12 12 12 12 12 12 12 12 12 12 12 12 11 11 11 11 11 10 10 9 9 9

GEFSNGP_500_meanwind_114.txt.gz
Wind_Speed
8 8 7 8 10 12 14 16 17 20 21 22 22 23 23 25 26 27 27 27 28 28 28 27 27 26 26 27 27 26 26 26 26 26 27 28 28 28 28 28 27 26 26 26
8 7 7 9 11 12 14 16 19 20 22 22 23 24 25 26 27 27 27 27 27 27 26 25 25 24 24 24 24 23 23 23 23 23 22 23 23 24 23 23 23 22 22 23
9 8 9 11 12 13 15 17 19 20 22 23 23 24 26 27 27 27 26 26 26 25 24 23 23 23 22 21 21 21 21 20 20 20 21 21 20 20 20 20 20 20 21 21
8 8 9 12 13 14 17 18 19 21 22 22 23 24 26 26 26 25 25 25 24 23 22 21 20 20 20 20 19 18 17 18 18 17 17 17 18 18 18 18 18 19 19 19
9 8 9 14 13 15 17 18 19 20 22 23 23 24 25 25 25 25 24 22 22 21 20 19 18 18 18 18 17 16 15 16 16 16 16 15 15 15 15 16 16 17 17 17
8 8 11 13 13 15 18 19 20 21 22 23 23 24 24 24 24 22 21 19 19 18 17 16 15 15 15 15 14 13 13 14 14 14 13 12 12 13 13 13 13 14 15 15
9 9 12 13 15 17 18 20 21 22 22 22 23 23 24 24 22 20 18 17 16 15 14 13 13 12 11 11 11 11 11 11 11 11 11 11 11 12 11 11 11 12 12 13
9 9 12 13 16 16 17 20 21 21 21 22 22 23 23 22 20 18 16 15 14 12 11 10 10 10 9 9 8 8 8 8 8 8 9 9 9 9 9 10 10 10 11 12
10 10 12 14 15 17 18 19 20 21 21 21 21 21 21 20 18 16 14 13 11 9 9 8 8 9 9 8 7 7 7 7 7 7 7 8 8 8 9 9 9 10 10 11
10 11 12 13 15 16 17 19 20 20 21 21 21 20 19 18 16 14 12 11 9 8 8 8 7 7 7 6 6 5 6 6 6 6 7 7 8 8 8 8 9 9 10 10
10 10 12 13 15 16 17 18 19 20 20 21 20 19 18 16 14 12 11 9 9 8 7 7 6 7 7 5 5 5 5 5 6 6 6 7 7 7 7 8 8 8 8 9
10 10 12 13 14 15 16 17 18 19 20 20 19 18 17 15 13 11 9 9 8 7 6 6 6 5 5 5 5 5 5 5 5 5 5 5 6 6 6 6 6 7 7 8
10 10 11 12 13 14 16 17 17 18 19 19 18 17 16 14 12 10 9 8 8 7 6 6 5 5 5 5 5 5 5 5 5 5 5 5 5 5 5 5 6 6 7 7
9 9 10 11 12 13 15 16 17 18 18 18 17 17 15 14 12 10 9 8 7 6 6 6 5 5 5 5 5 5 6 6 5 6 6 6 6 6 6 6 6 7 7 7
8 8 9 10 11 13 14 15 16 17 17 16 16 16 15 14 12 10 9 8 7 7 6 7 7 7 6 6 6 6 6 7 7 8 8 7 7 7 7 8 8 8 8 8
8 7 8 9 10 12 13 14 15 15 16 16 16 16 15 14 13 11 10 9 9 8 8 7 8 8 8 8 7 7 7 8 9 9 10 10 10 10 10 10 10 10 9 9
8 7 7 8 9 11 12 13 13 14 15 15 15 16 15 15 14 13 11 10 10 10 9 9 9 9 10 10 10 10 10 10 11 11 11 11 11 12 12 12 12 12 11 11
8 7 6 7 8 9 10 11 12 13 14 15 15 15 15 15 15 14 13 13 12 12 11 11 11 11 12 12 12 12 12 12 12 12 12 13 13 13 13 13 13 13 13 13
8 7 6 5 6 7 8 10 11 12 13 14 14 15 15 15 15 14 14 14 14 13 13 13 13 13 13 13 13 12 12 12 13 13 13 14 14 14 14 14 14 14 14 14
9 7 5 4 4 5 7 8 10 11 12 13 14 14 15 15 15 15 15 14 14 14 14 14 14 14 13 14 14 13 13 14 14 14 14 13 13 13 14 14 14 14 15 14
9 7 5 3 3 4 5 7 8 9 10 11 13 14 14 15 16 16 16 15 15 14 14 14 14 14 13 13 13 13 13 14 13 13 13 13 13 13 13 13 14 14 14 14
11 9 6 4 2 2 3 5 7 8 9 10 12 13 14 14 15 16 16 16 16 15 15 14 14 14 14 13 12 12 13 13 12 12 12 12 12 12 12 13 13 13 13 13
12 10 8 5 3 1 2 3 5 6 8 9 10 11 12 13 14 14 15 16 16 16 15 15 14 14 14 13 12 12 12 12 12 12 12 12 12 11 12 12 12 12 12 12
13 11 9 7 5 2 1 1 2 4 6 7 8 10 11 12 13 13 14 14 15 15 15 14 14 14 14 13 13 13 13 12 12 12 12 12 12 12 12 11 11 11 12 12
15 13 11 9 7 4 2 1 0 2 3 5 6 8 9 10 11 12 12 13 13 13 13 13 13 13 13 13 12 13 13 12 12 12 12 12 12 12 12 12 12 12 12 12
17 15 13 11 9 7 5 3 2 1 1 3 4 5 7 8 9 10 11 11 12 12 12 12 12 12 12 12 12 12 12 12 12 12 12 12 11 11 11 11 12 12 12 11
19 17 15 13 11 9 7 5 4 2 1 0 2 3 4 5 7 8 8 9 10 10 10 11 11 11 11 11 11 11 11 11 11 11 11 11 11 11 11 11 11 12 12 12